Change the Weather History Date:

Saturday, January 5, 2013

  Actual Average Record
Temperature  
Mean Temperature 26 °F 34 °F  
Max Temperature 42 °F 49 °F 82 °F (1956)
Min Temperature 10 °F 19 °F -8 °F (1971)
Degree Days  
Heating Degree Days 39 31  
Month to date heating degree days 214 155  
Since 1 July heating degree days 1882 2098  
Cooling Degree Days 0 0  
Month to date cooling degree days 0 0  
Year to date cooling degree days 0 0  
Moisture  
Dew Point 14 °F    
Average Humidity 66    
Maximum Humidity 91    
Minimum Humidity 40    
Precipitation  
Precipitation 0.00 in 0.01 in 0.10 in (1977)
Month to date precipitation 0.00 0.07  
Year to date precipitation 0.00 0.07  
Snow  
Snow 0.00 in 0.10 in 1.00 in (1977)
Month to date snowfall 0.0 0.6  
Since 1 July snowfall 4.0 6.8  
Snow Depth 1.00 in    
Sea Level Pressure  
Sea Level Pressure 30.21 in    
Wind  
Wind Speed 10 mph (WNW)    
Max Wind Speed 23 mph    
Max Gust Speed 30 mph    
Visibility 8 miles    
Events Fog    
T = Trace of Precipitation, MM = Missing Value Source: NWS Daily Summary

Daily Weather History Graph

Daily Weather History Graph

Search for Another Location

Airport or City:

Trip Planner

Search our weather history database for the weather conditions in past years. The results will help you decide how hot, cold, wet, or windy it might be!

Date:

Astronomy

Jan. 05, 2013 Rise Set
Actual Time 8:01 AM CST 5:50 PM CST
Civil Twilight 7:33 AM CST 6:18 PM CST
Nautical Twilight 7:01 AM CST 6:50 PM CST
Astronomical Twilight 6:30 AM CST 7:21 PM CST
Moon 1:16 AM CST (1/5) 12:36 PM CST (1/5)
Length of Visible Light 10h 45m
Length of Day
9h 49m
Last Quarter, 44% of the Moon is Illuminated
Jan 5
Last Quarter
Jan 11
New
Jan 18
First Quarter
Jan 26
Full
Feb 3
Last Quarter

Hourly Weather History & Observations

Time (CST) Temp. Windchill Dew Point Humidity Pressure Visibility Wind Dir Wind Speed Gust Speed Precip Events Conditions
12:53 AM 17.1 °F 6.6 °F 12.9 °F 84% 30.12 in 8.0 mi SSW 8.1 mph - N/A   Clear
1:53 AM 14.0 °F 2.0 °F 10.0 °F 84% 30.13 in 7.0 mi SSW 9.2 mph - N/A   Clear
2:21 AM 15.8 °F 5.1 °F 10.4 °F 79% 30.05 in 7.0 mi WSW 8.1 mph - N/A   Partly Cloudy
2:39 AM 15.8 °F 5.1 °F 10.4 °F 79% 30.04 in 8.0 mi WSW 8.1 mph - N/A   Mostly Cloudy
2:53 AM 16.0 °F 4.4 °F 12.0 °F 84% 30.11 in 6.0 mi WSW 9.2 mph - N/A   Mostly Cloudy
3:00 AM 15.8 °F 3.4 °F 12.2 °F 86% 30.04 in 2.5 mi WSW 10.4 mph - N/A   Overcast
3:08 AM 15.8 °F 3.4 °F 12.2 °F 86% 30.04 in 1.0 mi WSW 10.4 mph - N/A   Mist
3:16 AM 15.8 °F 4.2 °F 12.2 °F 86% 30.04 in 0.5 mi WSW 9.2 mph - N/A Fog Light Freezing Fog
3:53 AM 16.0 °F 4.4 °F 12.0 °F 84% 30.11 in 0.8 mi WSW 9.2 mph - N/A   Mist
4:00 AM 15.8 °F 5.1 °F 12.2 °F 86% 30.04 in 2.0 mi WSW 8.1 mph - N/A   Overcast
4:09 AM 15.8 °F 5.1 °F 12.2 °F 86% 30.05 in 5.0 mi WSW 8.1 mph - N/A   Mostly Cloudy
4:17 AM 17.6 °F 7.3 °F 12.2 °F 79% 30.05 in 7.0 mi WSW 8.1 mph - N/A   Scattered Clouds
4:53 AM 14.0 °F 2.9 °F 7.0 °F 74% 30.13 in 10.0 mi West 8.1 mph - N/A   Clear
5:53 AM 15.1 °F 4.2 °F 5.0 °F 64% 30.14 in 10.0 mi WNW 8.1 mph - N/A   Clear
6:53 AM 15.1 °F 2.5 °F 6.1 °F 68% 30.18 in 10.0 mi West 10.4 mph - N/A   Clear
7:53 AM 16.0 °F 2.3 °F 6.1 °F 65% 30.21 in 10.0 mi West 12.7 mph - N/A   Clear
8:53 AM 21.0 °F 9.9 °F 8.1 °F 57% 30.21 in 10.0 mi WNW 10.4 mph - N/A   Clear
9:53 AM 27.0 °F 16.7 °F 12.0 °F 53% 30.24 in 10.0 mi NW 11.5 mph - N/A   Clear
10:53 AM 35.1 °F 26.9 °F 17.1 °F 48% 30.26 in 10.0 mi NNW 11.5 mph - N/A   Clear
11:53 AM 37.9 °F 31.5 °F 17.1 °F 43% 30.26 in 10.0 mi NNW 9.2 mph - N/A   Clear
12:53 PM 39.9 °F 31.1 °F 18.0 °F 41% 30.25 in 10.0 mi NNW 17.3 mph 24.2 mph N/A   Clear
1:53 PM 41.0 °F 33.5 °F 19.0 °F 41% 30.25 in 10.0 mi NNW 13.8 mph - N/A   Clear
2:53 PM 42.1 °F 34.2 °F 21.0 °F 43% 30.25 in 10.0 mi North 16.1 mph - N/A   Clear
3:53 PM 41.0 °F 31.4 °F 21.0 °F 45% 30.28 in 10.0 mi North 21.9 mph 29.9 mph N/A   Clear
4:53 PM 39.9 °F 32.1 °F 23.0 °F 51% 30.33 in 10.0 mi North 13.8 mph - N/A   Clear
5:53 PM 34.0 °F 26.6 °F 23.0 °F 64% 30.35 in 10.0 mi North 9.2 mph - N/A   Clear
6:53 PM 32.0 °F 25.6 °F 21.9 °F 66% 30.38 in 10.0 mi North 6.9 mph - N/A   Clear
7:53 PM 28.9 °F 25.2 °F 19.9 °F 69% 30.41 in 10.0 mi North 3.5 mph - N/A   Clear
8:53 PM 26.1 °F 18.4 °F 19.0 °F 75% 30.42 in 10.0 mi NNW 6.9 mph - N/A   Clear
9:53 PM 23.0 °F 14.7 °F 17.1 °F 78% 30.44 in 10.0 mi WNW 6.9 mph - N/A   Clear
10:53 PM 21.9 °F 11.7 °F 16.0 °F 78% 30.43 in 10.0 mi WNW 9.2 mph - N/A   Clear
11:53 PM 21.0 °F 11.4 °F 15.1 °F 78% 30.43 in 10.0 mi WNW 8.1 mph - N/A   Clear